Location: Unspecified
(51.3762°N, 0.0000°E)
Time: 02:23:04
(UTC+00:00)

BEESAT 2 - Visible Passes

Search period start: 18 July 2019 00:00
Search period end: 28 July 2019 00:00
Orbit: 501 x 529 km, 64.9° (Epoch: 16 July)

Date Brightness Start Highest point End Pass type
(mag) Time Alt. Az. Time Alt. Az. Time Alt. Az.
18 Jul ? 01:26:47 10° SE 01:28:11 12° ESE 01:29:34 10° E visible
18 Jul ? 03:01:17 11° SW 03:05:07 81° SE 03:09:07 10° NE visible
19 Jul ? 01:10:49 10° SE 01:12:13 12° ESE 01:13:40 10° E visible
19 Jul ? 02:45:47 14° SW 02:49:10 82° SE 02:53:09 10° NE visible
20 Jul ? 00:55:18 11° SE 00:56:14 12° ESE 00:57:46 10° E visible
20 Jul ? 02:30:15 17° SW 02:33:12 83° SE 02:37:12 10° NE visible
21 Jul ? 00:39:43 12° ESE 00:40:16 12° ESE 00:41:51 10° E visible
21 Jul ? 02:14:41 21° SW 02:17:14 84° SE 02:21:14 10° NE visible
22 Jul ? 00:24:07 12° ESE 00:24:18 12° ESE 00:25:56 10° E visible
22 Jul ? 01:59:04 25° SW 02:01:16 85° SE 02:05:16 10° NE visible
23 Jul ? 00:08:28 12° ESE 00:08:28 12° ESE 00:10:02 10° E visible
23 Jul ? 01:43:25 30° SW 01:45:19 86° SE 01:49:19 10° NE visible
23 Jul ? 03:20:18 10° W 03:23:27 22° NNW 03:26:37 10° NNE visible
23 Jul ? 23:52:46 12° ESE 23:52:46 12° ESE 23:54:07 10° E visible
24 Jul ? 01:27:43 34° SW 01:29:21 87° SE 01:33:21 10° NE visible
24 Jul ? 03:04:21 10° W 03:07:29 22° NNW 03:10:39 10° NNE visible
24 Jul ? 23:37:02 12° E 23:37:02 12° E 23:38:11 10° E visible
25 Jul ? 01:11:59 39° SW 01:13:23 88° SE 01:17:23 10° NE visible
25 Jul ? 02:48:24 10° W 02:51:32 22° NNW 02:54:42 10° NNE visible
25 Jul ? 23:21:16 12° E 23:21:16 12° E 23:22:16 10° E visible
26 Jul ? 00:56:13 44° SW 00:57:25 89° SE 01:01:25 10° NE visible
26 Jul ? 02:32:27 10° W 02:35:34 22° NNW 02:38:43 10° NNE visible
26 Jul ? 23:05:27 12° E 23:05:27 12° E 23:06:21 10° E visible
27 Jul ? 00:40:24 48° SW 00:41:27 90° NNW 00:45:27 10° NE visible
27 Jul ? 02:16:30 10° W 02:19:37 21° NNW 02:22:45 10° NNE visible
27 Jul ? 22:49:35 12° E 22:49:35 12° E 22:50:24 10° E visible
